Location: St. Louis
(38.6270°N, 90.1994°W)
Time: 08:10:32
(UTC-06:00)

A-11 Canister half - Pass Details

Date: 11 December 2021
Orbit: 1524 x 1684 km, 47.3° (Epoch: 17 January)

Event Time Altitude Azimuth Distance (km) Brightness Sun altitude
Rises 02:35:34 0° 282° (WNW) 4,937 - -52.4°
Reaches altitude 10° 02:38:54 10° 288° (WNW) 3,950 - -51.7°
Maximum altitude 02:48:47 53° 3° (N) 1,997 - -49.8°
Exits shadow 02:52:15 39° 53° (NE) 2,324 10.0 -49.2°
Drops below altitude 10° 02:58:30 10° 79° (E) 3,885 11.6 -48.0°
Sets 03:01:45 0° 84° (E) 4,851 12.3 -47.3°
